Location: Poughquag
(41.6090°N, 73.6820°W)
Time: 02:42:27
(UTC-04:00)

Tiros 1 despin weight - All Passes

Search period start: 15 October 2019 00:00
Search period end: 25 October 2019 00:00
Orbit: 594 x 643 km, 48.2° (Epoch: 14 October)

Date Brightness Start Highest point End Pass type
(mag) Time Alt. Az. Time Alt. Az. Time Alt. Az.
15 Oct - 03:08:47 10° SW 03:13:16 48° SE 03:17:48 10° ENE visible
15 Oct - 04:50:18 10° W 04:54:53 52° NNW 04:59:29 10° ENE visible
15 Oct - 06:32:46 10° WNW 06:37:07 36° N 06:41:27 10° ENE visible
15 Oct - 08:14:38 10° WNW 08:19:17 60° NNE 08:23:52 10° ESE daylight
15 Oct - 09:56:28 10° WNW 10:00:45 37° SW 10:04:57 10° SSE daylight
16 Oct - 01:45:30 10° S 01:48:43 18° SE 01:51:56 10° E night (unlit)
16 Oct - 03:25:06 10° WSW 03:29:47 83° SSE 03:34:30 10° ENE visible
16 Oct - 05:07:15 10° W 05:11:42 41° N 05:16:09 10° ENE visible
16 Oct - 06:49:33 10° WNW 06:54:00 40° N 06:58:24 10° E daylight
16 Oct - 08:31:15 10° WNW 08:35:57 89° SW 08:40:34 10° ESE daylight
16 Oct - 10:13:41 10° W 10:17:03 20° SW 10:20:23 10° S daylight
17 Oct - 02:00:48 10° SSW 02:05:00 34° SE 02:09:15 10° ENE night (unlit)
17 Oct - 03:41:46 10° WSW 03:46:26 64° NNW 03:51:06 10° ENE visible
17 Oct - 05:24:13 10° WNW 05:28:35 36° N 05:32:56 10° ENE visible
17 Oct - 07:06:15 10° WNW 07:10:49 50° NNE 07:15:21 10° E daylight
17 Oct - 08:47:56 10° WNW 08:52:29 52° SW 08:56:57 10° SE daylight
18 Oct - 00:38:41 10° SSE 00:40:34 12° SE 00:42:28 10° ESE night (unlit)
18 Oct - 02:16:50 10° SW 02:21:26 61° SE 02:26:04 10° ENE night (unlit)
18 Oct - 03:58:39 10° W 04:03:11 46° NNW 04:07:43 10° ENE visible
18 Oct - 05:41:05 10° WNW 05:45:28 37° N 05:49:49 10° ENE visible
18 Oct - 07:22:51 10° WNW 07:27:33 72° NNE 07:32:11 10° ESE daylight
18 Oct - 09:04:51 10° W 09:08:51 29° SW 09:12:49 10° SSE daylight
19 Oct - 00:53:04 10° S 00:56:47 24° SE 01:00:32 10° E night (unlit)
19 Oct - 02:33:19 10° WSW 02:38:00 82° NNW 02:42:43 10° ENE visible
19 Oct - 04:15:37 10° WNW 04:20:02 38° N 04:24:26 10° ENE visible
19 Oct - 05:57:49 10° WNW 06:02:19 43° NNE 06:06:47 10° E visible
19 Oct - 07:39:28 10° WNW 07:44:09 72° SSW 07:48:46 10° SE daylight
19 Oct - 09:22:26 10° W 09:25:06 15° SW 09:27:45 10° SSW daylight
20 Oct - 01:08:43 10° SW 01:13:08 44° SE 01:17:35 10° ENE night (unlit)
20 Oct - 02:50:06 10° W 02:54:42 55° NNW 02:59:19 10° ENE visible
20 Oct - 04:32:33 10° WNW 04:36:54 36° N 04:41:16 10° ENE visible
20 Oct - 06:14:27 10° WNW 06:19:06 57° NNE 06:23:42 10° E visible
20 Oct - 07:56:13 10° WNW 08:00:37 41° SW 08:04:57 10° SSE daylight
20 Oct - 23:45:42 10° S 23:48:36 17° SE 23:51:32 10° E night (unlit)
21 Oct - 01:24:58 10° SW 01:29:37 77° SSE 01:34:19 10° ENE night (unlit)
21 Oct - 03:07:01 10° W 03:11:29 42° NNW 03:15:58 10° ENE visible
21 Oct - 04:49:22 10° WNW 04:53:46 39° N 04:58:11 10° ENE visible
21 Oct - 06:31:03 10° WNW 06:35:47 86° NNE 06:40:26 10° ESE visible
21 Oct - 08:13:20 10° W 08:16:57 22° SW 08:20:31 10° S daylight
22 Oct - 00:00:49 10° SSW 00:04:52 31° SE 00:08:59 10° ENE night (unlit)
22 Oct - 01:41:36 10° WSW 01:46:14 68° NNW 01:50:55 10° ENE night (unlit)
22 Oct - 03:23:59 10° WNW 03:28:21 37° N 03:32:43 10° ENE visible
22 Oct - 05:06:03 10° WNW 05:10:37 48° NNE 05:15:09 10° E visible
22 Oct - 06:47:42 10° WNW 06:52:19 57° SW 06:56:53 10° SE visible
22 Oct - 08:31:45 10° WSW 08:33:08 11° SW 08:34:31 10° SSW daylight
22 Oct - 22:39:23 10° SE 22:40:29 11° SE 22:41:35 10° ESE night (unlit)
23 Oct - 00:16:45 10° SW 00:21:17 56° SE 00:25:52 10° ENE night (unlit)
23 Oct - 01:58:27 10° W 02:02:58 48° NNW 02:07:32 10° ENE night (unlit)
23 Oct - 03:40:52 10° WNW 03:45:13 37° N 03:49:36 10° ENE visible
23 Oct - 05:22:39 10° WNW 05:27:21 67° NNE 05:32:01 10° ESE visible
23 Oct - 07:04:34 10° WNW 07:08:44 32° SW 07:12:51 10° SSE daylight
23 Oct - 22:53:10 10° S 22:56:39 22° SE 23:00:12 10° E night (unlit)
24 Oct - 00:33:10 10° WSW 00:37:49 87° NNW 00:42:32 10° ENE night (unlit)
24 Oct - 02:15:24 10° WNW 02:19:48 39° N 02:24:13 10° ENE night (unlit)
24 Oct - 03:57:37 10° WNW 04:02:05 42° NNE 04:06:34 10° E visible
24 Oct - 05:39:16 10° WNW 05:43:58 78° SSW 05:48:38 10° SE visible
24 Oct - 07:21:58 10° W 07:24:59 17° SW 07:27:59 10° S daylight
24 Oct - 23:08:42 10° SSW 23:12:59 40° SE 23:17:20 10° ENE night (unlit)
